{"data":{"norad_id":57917,"epoch":"2026-09-20T02:37:02.796096Z","epoch_age_seconds":168203,"freshness":"FRESH","line1":"1 57917U 23147E   26263.10906014  .00011899  00000+0  44116-3 0  9992","line2":"2 57917  42.9987 307.0772 0000737 188.8374 171.2465 15.27584757166350","mean_motion":15.27584757,"eccentricity":7.37e-5,"inclination_deg":42.9987,"raan_deg":307.0772,"arg_perigee_deg":188.8374,"mean_anomaly_deg":171.2465,"bstar":0.00044116,"rev_number":16635,"period_min":94.266455160759,"perigee_km":482.52918354181,"apogee_km":483.54052027278,"semimajor_km":6861.1718519073,"source":"CELESTRAK","updated_at":"2026-09-21T09:00:33.740908Z"}}